FW4449 Weather Reports


Display with metric or nautical units.
time (UTC)temp
F
wind
direction
speed
MPH
gust
MPH
rain 1hr
in
rain 24hr
in
rain mn
in
humidity
%
barometer
mb
20260504172502 60 307 13.0 22.0 0.00 0.00 0.00 27 1012.5
20260504172002 60 308 14.0 22.0 0.00 0.00 0.00 28 1012.4
20260504171502 60 305 15.0 23.0 0.00 0.00 0.00 27 1012.5
20260504171002 60 336 16.0 23.0 0.00 0.00 0.00 28 1012.5
20260504170502 60 305 17.0 25.0 0.00 0.00 0.00 27 1012.6
20260504151000 55 281 15.0 22.0 0.00 0.00 0.00 31 1012.7
20260504150501 54 283 14.0 19.0 0.00 0.00 0.00 33 1012.8
20260504141001 53 285 16.0 21.0 0.00 0.00 0.00 31 1013.0
20260504140501 53 276 15.0 21.0 0.00 0.00 0.00 31 1012.8
20260504130502 48 270 12.0 16.0 0.00 0.00 0.00 35 1012.7
20260504110501 47 285 13.0 16.0 0.00 0.00 0.00 34 1012.3
20260504100501 46 295 10.0 14.0 0.00 0.00 0.00 34 1012.6
20260504082001 38 134 0.0 0.0 0.00 0.00 0.00 46 1013.5
20260504081501 37 134 0.0 0.0 0.00 0.00 0.00 49 1013.6
20260504080501 38 134 0.0 1.0 0.00 0.00 0.00 48 1013.6
20260504050502 41 249 3.0 3.0 0.00 0.00 0.00 43 1014.9
20260504050004 42 253 3.0 4.0 0.00 0.00 0.00 42 1014.9
20260504045502 43 248 3.0 4.0 0.00 0.00 0.00 40 1015.0
20260504045002 44 247 3.0 4.0 0.00 0.00 0.00 39 1015.1
20260504044003 45 255 2.0 4.0 0.00 0.00 0.00 37 1015.2
20260504043502 46 245 3.0 6.0 0.00 0.00 0.00 37 1015.2
20260504042502 45 255 4.0 5.0 0.00 0.00 0.00 37 1015.2
20260504042002 44 222 3.0 5.0 0.00 0.00 0.00 38 1015.3
20260504041502 46 233 3.0 4.0 0.00 0.00 0.00 37 1015.4
20260504041002 47 246 3.0 4.0 0.00 0.00 0.00 36 1015.4
20260504040502 47 269 4.0 5.0 0.00 0.00 0.00 37 1015.4
20260504040004 47 271 4.0 5.0 0.00 0.00 0.00 37 1015.3
20260504035502 47 276 4.0 5.0 0.00 0.00 0.00 37 1015.3
20260504035002 47 277 4.0 6.0 0.00 0.00 0.00 37 1015.4
20260504034502 47 271 4.0 6.0 0.00 0.00 0.00 37 1015.3
20260504034002 46 284 3.0 5.0 0.00 0.00 0.00 39 1015.3
20260504033002 46 289 4.0 5.0 0.00 0.00 0.00 41 1015.3
20260504032502 45 289 4.0 5.0 0.00 0.00 0.00 43 1015.3
20260504031502 46 302 4.0 5.0 0.00 0.00 0.00 43 1015.2
20260504031002 46 324 4.0 4.0 0.00 0.00 0.00 44 1015.2
20260504030502 47 324 3.0 4.0 0.00 0.00 0.00 43 1015.2
20260504030005 46 324 3.0 4.0 0.00 0.00 0.00 43 1015.2
20260504025002 47 324 4.0 5.0 0.00 0.00 0.00 41 1015.2
20260504024002 48 324 3.0 5.0 0.00 0.00 0.00 40 1015.0
20260504023502 48 324 3.0 5.0 0.00 0.00 0.00 39 1015.0
20260504023002 49 352 4.0 5.0 0.00 0.00 0.00 39 1015.0
20260504022502 49 352 5.0 5.0 0.00 0.00 0.00 39 1015.0
20260504022002 49 352 4.0 6.0 0.00 0.00 0.00 40 1015.1
20260504021502 49 353 4.0 6.0 0.00 0.00 0.00 39 1015.0
20260504021002 50 351 5.0 6.0 0.00 0.00 0.00 38 1015.0
20260504020502 51 345 5.0 6.0 0.00 0.00 0.00 37 1015.0
20260504015502 53 341 6.0 10.0 0.00 0.00 0.00 32 1015.0
20260504015002 55 338 7.0 11.0 0.00 0.00 0.00 30 1014.9
20260504014502 55 340 8.0 10.0 0.00 0.00 0.00 29 1015.0
20260504014002 57 340 9.0 13.0 0.00 0.00 0.00 27 1015.0
20260504013502 58 335 11.0 18.0 0.00 0.00 0.00 25 1015.0
20260504013002 58 335 12.0 18.0 0.00 0.00 0.00 25 1015.0
20260504012002 58 335 14.0 23.0 0.00 0.00 0.00 24 1014.9
20260504011502 59 345 15.0 23.0 0.00 0.00 0.00 23 1014.9
20260504011002 59 348 15.0 19.0 0.00 0.00 0.00 23 1014.9
20260504010502 60 338 15.0 21.0 0.00 0.00 0.00 24 1015.0
20260504010004 60 354 14.0 21.0 0.00 0.00 0.00 23 1014.9
20260504005502 60 333 13.0 20.0 0.00 0.00 0.00 23 1015.0
20260504005002 60 329 14.0 21.0 0.00 0.00 0.00 21 1014.9
20260504004002 61 312 13.0 22.0 0.00 0.00 0.00 19 1014.9
20260504003502 61 311 15.0 22.0 0.00 0.00 0.00 17 1014.9
20260504003002 60 343 13.0 22.0 0.00 0.00 0.00 20 1014.9
20260504002502 61 325 13.0 25.0 0.00 0.00 0.00 20 1015.2
20260504001502 61 297 8.0 16.0 0.00 0.00 0.00 17 1014.9
20260504001002 60 284 9.0 15.0 0.00 0.00 0.00 18 1015.0
20260504000502 60 298 12.0 21.0 0.00 0.00 0.00 20 1015.3
20260504000006 61 300 18.0 45.0 0.00 0.00 0.00 19 1015.4
20260503235502 60 314 23.0 45.0 0.00 0.00 0.00 20 1015.3
20260503235003 61 319 17.0 33.0 0.00 0.00 0.00 19 1015.1
20260503234502 61 293 13.0 23.0 0.00 0.00 0.00 19 1015.0
20260503234002 61 295 16.0 25.0 0.00 0.00 0.00 17 1015.2
20260503233502 62 299 19.0 32.0 0.00 0.00 0.00 18 1015.1
20260503233002 62 294 17.0 32.0 0.00 0.00 0.00 19 1015.3
20260503232502 62 281 15.0 26.0 0.00 0.00 0.00 17 1015.0
20260503231502 63 300 14.0 25.0 0.00 0.00 0.00 17 1015.2
20260503231002 63 329 16.0 22.0 0.00 0.00 0.00 16 1015.2
20260503230502 63 311 18.0 25.0 0.00 0.00 0.00 16 1015.4
20260503225502 63 300 14.0 25.0 0.00 0.00 0.00 19 1015.1
20260503224502 63 279 20.0 29.0 0.00 0.00 0.00 16 1015.3
20260503224002 64 337 20.0 29.0 0.00 0.00 0.00 17 1015.3
20260503223503 63 330 17.0 28.0 0.00 0.00 0.00 17 1015.2
20260503222002 62 302 13.0 22.0 0.00 0.00 0.00 18 1015.2
20260503221502 61 314 15.0 22.0 0.00 0.00 0.00 16 1015.5
20260503221003 62 328 16.0 25.0 0.00 0.00 0.00 17 1015.4
20260503220503 62 318 17.0 26.0 0.00 0.00 0.00 18 1015.4
20260503220004 62 316 16.0 26.0 0.00 0.00 0.00 19 1015.6
20260503215001 62 328 14.0 23.0 0.00 0.00 0.00 19 1015.8
20260503214001 61 302 19.0 25.0 0.00 0.00 0.00 19 1015.9
20260503213502 61 325 18.0 29.0 0.00 0.00 0.00 19 1016.0
20260503213002 62 309 16.0 27.0 0.00 0.00 0.00 18 1016.0
20260503212002 61 327 14.0 25.0 0.00 0.00 0.00 18 1016.1
20260503211002 61 300 18.0 29.0 0.00 0.00 0.00 20 1016.3
20260503210502 61 316 18.0 25.0 0.00 0.00 0.00 21 1016.3
20260503210006 61 333 16.0 25.0 0.00 0.00 0.00 19 1016.4
20260503205502 61 329 14.0 22.0 0.00 0.00 0.00 21 1016.5
20260503205002 61 314 15.0 22.0 0.00 0.00 0.00 20 1016.6
20260503204502 60 333 17.0 26.0 0.00 0.00 0.00 20 1016.6
20260503204002 60 343 19.0 29.0 0.00 0.00 0.00 21 1016.6
20260503203002 61 320 16.0 29.0 0.00 0.00 0.00 21 1016.6
20260503202002 60 347 17.0 27.0 0.00 0.00 0.00 21 1016.8
20260503201002 60 311 18.0 26.0 0.00 0.00 0.00 21 1016.8
20260503200502 60 323 15.0 26.0 0.00 0.00 0.00 20 1016.9
20260503200004 61 314 12.0 20.0 0.00 0.00 0.00 20 1016.9
20260503194001 61 308 12.0 21.0 0.00 0.00 0.00 21 1016.7
20260503193501 61 330 14.0 22.0 0.00 0.00 0.00 21 1016.8
20260503193001 62 323 16.0 26.0 0.00 0.00 0.00 21 1016.8
20260503192502 63 300 14.0 26.0 0.00 0.00 0.00 19 1016.8
20260503192001 61 291 14.0 24.0 0.00 0.00 0.00 21 1017.0
20260503191501 61 291 18.0 26.0 0.00 0.00 0.00 21 1017.0
20260503191002 61 285 18.0 28.0 0.00 0.00 0.00 21 1017.0
20260503190003 61 293 15.0 23.0 0.00 0.00 0.00 21 1017.1
20260503185501 62 287 16.0 23.0 0.00 0.00 0.00 21 1017.3
20260503184501 61 310 15.0 22.0 0.00 0.00 0.00 22 1017.4
20260503184001 61 281 15.0 22.0 0.00 0.00 0.00 21 1017.5
20260503183501 61 302 11.0 22.0 0.00 0.00 0.00 22 1017.5
20260503183001 60 309 8.0 16.0 0.00 0.00 0.00 24 1017.8
20260503182501 59 316 9.0 14.0 0.00 0.00 0.00 23 1018.0
20260503181502 59 307 13.0 22.0 0.00 0.00 0.00 23 1018.2
20260503181001 59 281 13.0 22.0 0.00 0.00 0.00 24 1018.2
20260503180501 59 293 15.0 22.0 0.00 0.00 0.00 25 1018.3
20260503180004 59 288 15.0 22.0 0.00 0.00 0.00 24 1018.4
20260503175501 59 311 15.0 22.0 0.00 0.00 0.00 24 1018.4
20260503175001 60 290 16.0 21.0 0.00 0.00 0.00 24 1018.6
20260503174501 59 303 16.0 25.0 0.00 0.00 0.00 25 1018.5
20260503174001 59 303 16.0 25.0 0.00 0.00 0.00 26 1018.6
20260503173501 59 300 17.0 29.0 0.00 0.00 0.00 24 1018.7